Weather History for KDNV - September, 2012

Change the Weather History Date:

Thursday, September 13, 2012

  Actual Average (KLAF) Record (KLAF)
Temperature  
Mean Temperature 71 °F 67 °F  
Max Temperature 82 °F 79 °F 93 °F (2005)
Min Temperature 60 °F 56 °F 34 °F (1964)
Degree Days  
Heating Degree Days 0 2  
Month to date heating degree days 13  
Since 1 July heating degree days 19  
Cooling Degree Days 6 4  
Month to date cooling degree days 70  
Year to date cooling degree days 922  
Growing Degree Days 21 (Base 50)    
Moisture  
Dew Point 58 °F    
Average Humidity 66    
Maximum Humidity 88    
Minimum Humidity 46    
Precipitation  
Precipitation 0.00 in 0.10 in 2.05 in (1977)
Month to date precipitation 1.19  
Year to date precipitation 26.74  
Sea Level Pressure  
Sea Level Pressure 30.20 in    
Wind  
Wind Speed 6 mph (SSW)    
Max Wind Speed 17 mph    
Max Gust Speed 25 mph    
Visibility 9 miles    
Events      
T = Trace of Precipitation, MM = Missing Value Source: NWS Daily Summary

Daily Weather History Graph

Daily Weather History Graph

Search for Another Location

Airport or City:

Trip Planner

Search our weather history database for the weather conditions in past years. The results will help you decide how hot, cold, wet, or windy it might be!

Date:

Astronomy

Sep. 13, 2012 Rise Set
Actual Time 6:29 AM CDT 7:01 PM CDT
Civil Twilight 6:02 AM CDT 7:28 PM CDT
Nautical Twilight 5:30 AM CDT 8:01 PM CDT
Astronomical Twilight 4:57 AM CDT 8:33 PM CDT
Moon 3:48 AM CDT (9/13) 5:24 PM CDT (9/13)
Length of Visible Light 13h 26m
Length of Day
12h 31m
Waning Crescent, 7% of the Moon is Illuminated
Sep 13
Waning Crescent
Sep 15
New
Sep 22
First Quarter
Sep 29
Full
Oct 8
Last Quarter

Hourly Weather History & Observations

Time (CDT) Temp. Heat Index Dew Point Humidity Pressure Visibility Wind Dir Wind Speed Gust Speed Precip Events Conditions
12:15 AM 65.3 °F - 56.3 °F 73% 30.18 in 7.0 mi South 5.8 mph - N/A   Clear
12:35 AM 65.5 °F - 56.3 °F 72% 30.18 in 10.0 mi South 5.8 mph - N/A   Scattered Clouds
12:55 AM 65.8 °F - 56.3 °F 71% 30.18 in 7.0 mi South 4.6 mph - N/A   Mostly Cloudy
1:15 AM 66.2 °F - 56.1 °F 70% 30.18 in 10.0 mi South 4.6 mph - N/A   Mostly Cloudy
1:35 AM 67.1 °F - 56.3 °F 68% 30.18 in 10.0 mi South 5.8 mph - N/A   Mostly Cloudy
1:55 AM 67.5 °F - 56.3 °F 67% 30.18 in 10.0 mi SSW 4.6 mph - N/A   Overcast
2:15 AM 68.2 °F - 56.3 °F 66% 30.18 in 10.0 mi SSW 5.8 mph - N/A   Overcast
2:35 AM 67.6 °F - 56.3 °F 67% 30.19 in 10.0 mi SSW 5.8 mph - N/A   Overcast
2:55 AM 68.0 °F - 56.3 °F 66% 30.19 in 10.0 mi SW 5.8 mph - N/A   Overcast
3:15 AM 68.2 °F - 56.3 °F 66% 30.19 in 10.0 mi SSW 6.9 mph - N/A   Overcast
3:35 AM 67.5 °F - 56.3 °F 67% 30.19 in 10.0 mi SSW 4.6 mph - N/A   Overcast
3:55 AM 67.8 °F - 56.3 °F 67% 30.20 in 10.0 mi SSW 4.6 mph - N/A   Overcast
4:15 AM 68.0 °F - 56.3 °F 66% 30.20 in 10.0 mi South 5.8 mph - N/A   Overcast
4:35 AM 67.5 °F - 56.3 °F 67% 30.20 in 10.0 mi South 4.6 mph - N/A   Overcast
4:55 AM 67.1 °F - 56.8 °F 70% 30.20 in 10.0 mi Calm Calm - N/A   Overcast
5:15 AM 66.2 °F - 57.2 °F 73% 30.20 in 10.0 mi South 3.5 mph - N/A   Overcast
5:35 AM 66.0 °F - 56.8 °F 72% 30.21 in 10.0 mi South 4.6 mph - N/A   Overcast
5:55 AM 65.5 °F - 56.8 °F 74% 30.21 in 10.0 mi South 4.6 mph - N/A   Overcast
6:15 AM 65.3 °F - 57.0 °F 75% 30.21 in 10.0 mi South 4.6 mph - N/A   Overcast
6:35 AM 64.6 °F - 57.2 °F 77% 30.22 in 7.0 mi Calm Calm - N/A   Overcast
6:55 AM 64.9 °F - 57.4 °F 76% 30.22 in 7.0 mi SSE 4.6 mph - N/A   Overcast
7:15 AM 65.5 °F - 57.6 °F 76% 30.22 in 10.0 mi Calm Calm - N/A   Overcast
7:35 AM 65.8 °F - 57.7 °F 75% 30.23 in 7.0 mi South 4.6 mph - N/A   Overcast
7:55 AM 66.2 °F - 57.2 °F 73% 30.23 in 7.0 mi SSE 3.5 mph - N/A   Overcast
8:15 AM 67.5 °F - 58.3 °F 72% 30.22 in 10.0 mi SSE 3.5 mph - N/A   Overcast
8:35 AM 68.9 °F - 58.3 °F 69% 30.23 in 7.0 mi SSE 4.6 mph - N/A   Mostly Cloudy
8:55 AM 71.1 °F - 58.1 °F 63% 30.23 in 10.0 mi South 10.4 mph - N/A   Scattered Clouds
9:15 AM 71.1 °F - 58.1 °F 63% 30.23 in 7.0 mi SSW 5.8 mph - N/A   Clear
9:35 AM 73.6 °F - 58.8 °F 60% 30.23 in 7.0 mi SSW 9.2 mph - N/A   Clear
9:55 AM 74.8 °F - 59.5 °F 59% 30.23 in 7.0 mi SW 4.6 mph - N/A   Clear
10:15 AM 76.1 °F - 59.9 °F 57% 30.23 in 7.0 mi SSW 6.9 mph - N/A   Clear
10:35 AM 77.0 °F - 60.4 °F 56% 30.23 in 7.0 mi SW 6.9 mph - N/A   Clear
10:55 AM 77.7 °F - 60.1 °F 54% 30.22 in 7.0 mi South 5.8 mph - N/A   Clear
11:15 AM 77.2 °F - 59.7 °F 55% 30.22 in 7.0 mi SSW 8.1 mph - N/A   Clear
11:35 AM 80.2 °F 80.9 °F 59.7 °F 49% 30.21 in 5.0 mi South 6.9 mph - N/A   Haze
11:55 AM 77.7 °F - 59.7 °F 54% 30.21 in 7.0 mi SSW 5.8 mph - N/A   Scattered Clouds
12:15 PM 77.4 °F - 59.9 °F 55% 30.21 in 7.0 mi SW 4.6 mph - N/A   Scattered Clouds
12:35 PM 77.4 °F - 59.0 °F 53% 30.20 in 7.0 mi SSW 3.5 mph - N/A   Scattered Clouds
12:55 PM 79.7 °F - 59.5 °F 50% 30.19 in 7.0 mi South 10.4 mph - N/A   Scattered Clouds
1:15 PM 79.0 °F - 60.1 °F 52% 30.19 in 7.0 mi South 9.2 mph - N/A   Clear
1:35 PM 80.2 °F 81.0 °F 59.9 °F 50% 30.18 in 7.0 mi SSE 10.4 mph 16.1 mph N/A   Clear
1:55 PM 79.5 °F - 60.6 °F 52% 30.17 in 7.0 mi SSE 8.1 mph - N/A   Clear
2:15 PM 81.5 °F 82.1 °F 60.8 °F 49% 30.16 in 7.0 mi SSE 9.2 mph - N/A   Clear
2:35 PM 82.0 °F 82.4 °F 60.3 °F 47% 30.16 in 7.0 mi South 4.6 mph - N/A   Clear
2:55 PM 81.3 °F 81.6 °F 59.0 °F 46% 30.15 in 10.0 mi South 8.1 mph - N/A   Clear
3:15 PM 80.6 °F 81.1 °F 59.4 °F 48% 30.15 in 10.0 mi SSW 5.8 mph - N/A   Scattered Clouds
3:35 PM 80.1 °F 80.5 °F 57.7 °F 46% 30.15 in 10.0 mi SSW 5.8 mph - N/A   Mostly Cloudy
3:55 PM 78.8 °F - 59.0 °F 51% 30.15 in 10.0 mi Calm Calm - N/A   Overcast
4:15 PM 78.3 °F - 58.5 °F 50% 30.15 in 10.0 mi Calm Calm - N/A   Overcast
4:35 PM 78.4 °F - 58.8 °F 51% 30.15 in 10.0 mi Calm Calm - N/A   Overcast
4:55 PM 77.4 °F - 58.5 °F 52% 30.15 in 10.0 mi Calm Calm - N/A   Overcast
5:15 PM 77.0 °F - 60.8 °F 57% 30.14 in 10.0 mi Calm Calm - N/A   Overcast
5:35 PM 77.2 °F - 60.8 °F 57% 30.15 in 10.0 mi Calm Calm - N/A   Mostly Cloudy
5:55 PM 76.1 °F - 60.8 °F 59% 30.15 in 10.0 mi SW 3.5 mph - N/A   Overcast
6:15 PM 74.5 °F - 62.1 °F 65% 30.15 in 10.0 mi West 3.5 mph - N/A   Overcast
6:35 PM 73.6 °F - 63.3 °F 70% 30.15 in 10.0 mi Calm Calm - N/A   Overcast
6:55 PM 72.5 °F - 61.7 °F 69% 30.16 in 10.0 mi NNW 12.7 mph 16.1 mph N/A   Overcast
7:15 PM 69.8 °F - 60.8 °F 73% 30.17 in 10.0 mi North 17.3 mph 25.3 mph N/A   Overcast
7:35 PM 67.8 °F - 60.3 °F 77% 30.19 in 10.0 mi North 13.8 mph 24.2 mph N/A   Overcast
7:55 PM 66.7 °F - 59.4 °F 77% 30.20 in 7.0 mi North 15.0 mph 18.4 mph N/A   Overcast
8:15 PM 66.2 °F - 59.0 °F 78% 30.21 in 10.0 mi North 15.0 mph 18.4 mph N/A   Overcast
8:35 PM 65.7 °F - 58.5 °F 78% 30.21 in 7.0 mi North 10.4 mph - N/A   Overcast
8:55 PM 64.8 °F - 58.3 °F 79% 30.22 in 7.0 mi North 13.8 mph 17.3 mph N/A   Mostly Cloudy
9:15 PM 64.0 °F - 58.5 °F 82% 30.23 in 7.0 mi North 13.8 mph 18.4 mph N/A   Scattered Clouds
9:35 PM 63.7 °F - 58.5 °F 83% 30.24 in 7.0 mi North 10.4 mph - N/A   Scattered Clouds
9:55 PM 63.0 °F - 57.9 °F 84% 30.24 in 10.0 mi North 10.4 mph - N/A   Mostly Cloudy
10:15 PM 62.8 °F - 57.6 °F 83% 30.24 in 10.0 mi North 10.4 mph - N/A   Mostly Cloudy
10:35 PM 62.2 °F - 57.2 °F 84% 30.25 in 10.0 mi North 10.4 mph - N/A   Mostly Cloudy
10:55 PM 61.7 °F - 57.2 °F 85% 30.24 in 10.0 mi North 9.2 mph - N/A   Clear
11:15 PM 61.3 °F - 57.2 °F 86% 30.24 in 10.0 mi North 6.9 mph - N/A   Clear
11:35 PM 60.8 °F - 56.8 °F 87% 30.24 in 10.0 mi North 5.8 mph - N/A   Clear
11:55 PM 60.3 °F - 56.7 °F 88% 30.24 in 10.0 mi North 5.8 mph - N/A   Scattered Clouds